CST,Max TemperatureF,Mean TemperatureF,Min TemperatureF,Max Dew PointF,MeanDew PointF,Min DewpointF,Max Humidity, Mean Humidity, Min Humidity, Max Sea Level PressureIn, Mean Sea Level PressureIn, Min Sea Level PressureIn, Max VisibilityMiles, Mean VisibilityMiles, Min VisibilityMiles, Max Wind SpeedMPH, Mean Wind SpeedMPH, Max Gust SpeedMPH,PrecipitationIn, CloudCover, Events, WindDirDegrees
2012-12-1,65,54,42,47,43,39,83,67,51,30.24,30.17,30.10,10,10,9,13,6,20,0.00,5,,170
2012-12-2,65,62,59,59,55,48,90,75,60,30.12,30.09,30.05,10,9,3,18,10,24,0.08,8,Rain,202
2012-12-3,73,67,61,58,55,48,84,68,52,30.13,30.09,30.04,10,10,10,24,11,32,0.00,3,,194
2012-12-4,66,52,38,59,51,36,93,75,56,30.29,30.12,30.04,10,8,1,17,7,23,0.31,7,Rain-Thunderstorm,257
2012-12-5,58,46,34,39,35,31,92,68,43,30.38,30.30,30.20,10,9,2,9,3,12,0.00,0,,35
2012-12-6,52,42,32,48,42,29,93,78,63,30.19,30.05,29.99,10,7,3,8,3,10,0.01,7,Rain,114
2012-12-7,60,55,49,55,51,46,96,88,80,29.97,29.90,29.84,8,4,0,12,5,16,0.18,8,Fog-Rain,182
2012-12-8,57,52,47,54,48,43,93,85,77,30.01,29.93,29.85,10,6,3,13,6,15,T,8,Rain,348
2012-12-9,65,57,48,58,52,44,93,86,78,29.97,29.82,29.74,10,8,1,23,8,36,0.67,8,Rain-Thunderstorm,184
2012-12-10,48,40,32,43,30,21,86,75,63,30.08,29.89,29.79,10,10,7,20,10,25,0.00,8,,317
2012-12-11,39,33,26,24,22,19,78,64,50,30.30,30.18,30.07,10,10,7,12,4,16,0.00,2,,239
2012-12-12,46,35,23,28,24,19,88,64,40,30.42,30.37,30.30,10,9,4,8,2,12,0.00,0,,107
2012-12-13,52,37,22,30,24,20,88,59,30,30.43,30.36,30.28,10,9,6,9,2,13,0.00,0,,162
2012-12-14,56,41,25,33,27,22,81,57,32,30.33,30.23,30.12,10,10,10,13,5,16,0.00,1,,171
2012-12-15,57,52,46,54,47,34,86,71,56,30.08,29.87,29.77,10,10,8,21,10,32,0.07,6,Rain,173
2012-12-16,60,52,43,54,48,43,100,81,62,29.78,29.74,29.68,10,6,0,15,3,18,0.00,2,Fog,212
2012-12-17,58,50,41,48,43,36,93,83,72,29.79,29.68,29.59,10,6,2,15,6,21,0.02,7,Rain,332
2012-12-18,56,48,39,38,34,32,79,60,41,29.91,29.85,29.76,10,10,9,17,9,23,0.00,3,,222
2012-12-19,56,45,34,43,36,30,83,69,54,30.06,29.95,29.73,10,9,5,14,7,21,0.00,3,,81
2012-12-20,60,46,32,52,37,21,89,69,49,29.84,29.56,29.36,10,9,2,40,22,53,0.36,8,Rain-Snow-Thunderstorm,204
2012-12-21,39,33,28,20,17,15,66,54,36,30.29,30.10,29.86,10,10,10,31,19,41,T,1,,289
2012-12-22,42,31,19,20,17,14,84,59,34,30.36,30.23,30.05,10,10,10,8,3,13,0.00,0,,172
2012-12-23,56,42,28,40,32,20,71,57,43,30.04,29.95,29.86,10,10,10,10,5,13,0.00,3,,177
2012-12-24,49,41,33,46,38,24,93,79,65,30.11,29.90,29.79,10,5,0,18,6,24,T,8,Fog-Rain,308
2012-12-25,37,34,30,28,26,24,82,71,59,30.21,30.08,29.81,10,8,3,24,12,31,0.01,8,Rain,30
2012-12-26,34,33,32,30,28,26,89,82,75,30.11,29.78,29.60,10,5,0,25,15,35,1.15,8,Fog-Rain-Snow-Thunderstorm,350
2012-12-27,33,32,30,26,25,23,85,75,64,30.24,30.18,30.13,10,10,9,13,3,16,0.00,8,,316
2012-12-28,38,34,29,31,29,26,89,82,75,30.13,29.94,29.81,10,5,0,10,5,13,0.36,7,Rain-Snow,49
2012-12-29,33,25,17,30,25,14,92,80,68,30.39,30.07,29.80,10,6,2,20,9,26,0.10,7,Snow,300
2012-12-30,32,22,12,23,16,9,92,81,69,30.54,30.45,30.33,10,5,0,12,3,15,0.00,0,Fog,192
2012-12-31,36,33,30,32,29,24,89,79,69,30.32,30.19,30.08,10,6,1,13,4,17,0.15,7,Rain-Snow,198